Location: Unspecified
(0.0000°N, 0.0000°E)
Time: 01:43:20
(UTC+00:00)

SR - Pass Details

Date: 10 October 2020
Orbit: 581 x 874 km, 66.7° (Epoch: 25 October)

Event Time Altitude Azimuth Distance (km) Brightness Sun altitude
Rises 05:17:49 0° 208° (SSW) 3,012 ? -7.2°
Reaches altitude 10° 05:20:15 10° 212° (SSW) 2,052 ? -6.6°
Maximum altitude 05:24:43 53° 289° (WNW) 759 ? -5.5°
Drops below altitude 10° 05:28:55 10° 6° (N) 1,921 ? -4.5°
Sets 05:31:08 0° 11° (NNE) 2,800 ? -3.9°
